Location: Poughquag
(41.6090°N, 73.6820°W)
Time: 06:37:20
(UTC-05:00)

STRAND 1 - Pass Details

Date: 02 December 2023
Orbit: 766 x 778 km, 98.4° (Epoch: 24 February)

Event Time Altitude Azimuth Distance (km) Brightness Sun altitude
Exits shadow 19:49:41 21° 304° (NW) 1,655 ? -37.6°
Maximum altitude 19:50:10 22° 296° (WNW) 1,642 ? -37.7°
Drops below altitude 10° 19:53:58 10° 247° (WSW) 2,304 ? -38.4°
Sets 19:56:43 0° 232° (SW) 3,227 ? -38.9°
